Location: Boiro
(42.6475°N, 8.8834°W)
Time: 21:18:29
(UTC+01:00)

Vanguard 1 - Pass Details

Date: 05 December 2021
Orbit: 652 x 3830 km, 34.2° (Epoch: 19 January)

Event Time Altitude Azimuth Distance (km) Brightness Sun altitude
Rises 04:08:00 0° 266° (W) 7,796 - -50.8°
Reaches altitude 10° 04:13:11 10° 264° (W) 6,893 - -49.9°
Exits shadow 04:35:46 66° 196° (SSW) 3,667 12.5 -45.9°
Maximum altitude 04:36:22 66° 189° (S) 3,637 12.5 -45.8°
Drops below altitude 10° 04:52:40 10° 112° (ESE) 5,093 14.2 -42.9°
Sets 04:55:51 0° 109° (ESE) 5,759 14.7 -42.3°
